Location: ??
(34.9170°N, 135.5016°E)
Time: 14:03:12
(UTC+00:00)

S-56A Canister/Altair - Pass Details

Date: 12 March 2021
Orbit: 632 x 2500 km, 38.9° (Epoch: 16 April)

Event Time Altitude Azimuth Distance (km) Brightness Sun altitude
Rises 09:23:03 0° 291° (WNW) 6,126 13.7 -4.9°
Reaches altitude 10° 09:27:30 10° 284° (WNW) 5,163 13.4 -5.9°
Maximum altitude 09:40:19 36° 226° (SW) 3,326 11.2 -8.5°
Drops below altitude 10° 09:51:23 10° 166° (SSE) 4,423 11.2 -10.8°
Sets 09:54:55 0° 157° (SSE) 5,178 11.5 -11.5°
